Year,Month,Day,Hour,Minute,Value (Times are PST for temperature in C)
2019,11,28,00,00,1.10
2019,11,28,00,01,1.00
2019,11,28,00,02,1.00
2019,11,28,00,03,0.80
2019,11,28,00,04,0.70
2019,11,28,00,05,0.60
2019,11,28,00,06,0.50
2019,11,28,00,07,0.40
2019,11,28,00,08,0.30
2019,11,28,00,09,0.30
2019,11,28,00,10,0.30
2019,11,28,00,11,0.20
2019,11,28,00,12,0.20
2019,11,28,00,13,0.10
2019,11,28,00,14,0.10
2019,11,28,00,15,0.10
2019,11,28,00,16,0.00
2019,11,28,00,17,0.00
2019,11,28,00,18,-0.10
2019,11,28,00,19,-0.20
2019,11,28,00,20,-0.30
2019,11,28,00,21,-0.30
2019,11,28,00,22,-0.40
2019,11,28,00,23,-0.40
2019,11,28,00,24,-0.50
2019,11,28,00,25,-0.60
2019,11,28,00,26,-0.70
2019,11,28,00,27,-0.80
2019,11,28,00,28,-0.80
2019,11,28,00,29,-0.90
2019,11,28,00,30,-1.00
2019,11,28,00,31,-1.10
2019,11,28,00,32,-1.10
2019,11,28,00,33,-1.10
2019,11,28,00,34,-1.10
2019,11,28,00,35,-1.20
2019,11,28,00,36,-1.20
2019,11,28,00,37,-1.20
2019,11,28,00,38,-1.20
2019,11,28,00,39,-1.20
2019,11,28,00,40,-1.20
2019,11,28,00,41,-1.20
2019,11,28,00,42,-1.30
2019,11,28,00,43,-1.30
2019,11,28,00,44,-1.40
2019,11,28,00,45,-1.40
2019,11,28,00,46,-1.40
2019,11,28,00,47,-1.50
2019,11,28,00,48,-1.50
2019,11,28,00,49,-1.50
2019,11,28,00,50,-1.40
2019,11,28,00,51,-1.40
2019,11,28,00,52,-1.40
2019,11,28,00,53,-1.40
2019,11,28,00,54,-1.40
2019,11,28,00,55,-1.30
2019,11,28,00,56,-1.20
2019,11,28,00,57,-1.20
2019,11,28,00,58,-1.20
2019,11,28,00,59,-1.10
2019,11,28,01,00,-1.00
2019,11,28,01,01,-0.90
2019,11,28,01,02,-0.90
2019,11,28,01,03,-0.90
2019,11,28,01,04,-0.90
2019,11,28,01,05,-0.90
2019,11,28,01,06,-1.00
2019,11,28,01,07,-1.00
2019,11,28,01,08,-0.90
2019,11,28,01,09,-0.90
2019,11,28,01,10,-0.80
2019,11,28,01,11,-0.80
2019,11,28,01,12,-0.90
2019,11,28,01,13,-0.90
2019,11,28,01,14,-0.90
2019,11,28,01,15,-0.90
2019,11,28,01,16,-1.00
2019,11,28,01,17,-1.00
2019,11,28,01,18,-1.10
2019,11,28,01,19,-1.20
2019,11,28,01,20,-1.20
2019,11,28,01,21,-1.30
2019,11,28,01,22,-1.40
2019,11,28,01,23,-1.50
2019,11,28,01,24,-1.50
2019,11,28,01,25,-1.60
2019,11,28,01,26,-1.60
2019,11,28,01,27,-1.70
2019,11,28,01,28,-1.70
2019,11,28,01,29,-1.80
2019,11,28,01,30,-1.80
2019,11,28,01,31,-1.90
2019,11,28,01,32,-1.90
2019,11,28,01,33,-2.00
2019,11,28,01,34,-2.10
2019,11,28,01,35,-2.10
2019,11,28,01,36,-2.20
2019,11,28,01,37,-2.20
2019,11,28,01,38,-2.30
2019,11,28,01,39,-2.30
2019,11,28,01,40,-2.30
2019,11,28,01,41,-2.30
2019,11,28,01,42,-2.40
2019,11,28,01,43,-2.40
2019,11,28,01,44,-2.50
2019,11,28,01,45,-2.50
2019,11,28,01,46,-2.50
2019,11,28,01,47,-2.50
2019,11,28,01,48,-2.60
2019,11,28,01,49,-2.60
2019,11,28,01,50,-2.60
2019,11,28,01,51,-2.60
2019,11,28,01,52,-2.70
2019,11,28,01,53,-2.70
2019,11,28,01,54,-2.70
2019,11,28,01,55,-2.70
2019,11,28,01,56,-2.70
2019,11,28,01,57,-2.80
2019,11,28,01,58,-2.80
2019,11,28,01,59,-2.80
2019,11,28,02,00,-2.80
2019,11,28,02,01,-2.90
2019,11,28,02,02,-2.90
2019,11,28,02,03,-2.90
2019,11,28,02,04,-2.90
2019,11,28,02,05,-2.90
2019,11,28,02,06,-2.90
2019,11,28,02,07,-2.90
2019,11,28,02,08,-2.90
2019,11,28,02,09,-2.90
2019,11,28,02,10,-2.90
2019,11,28,02,11,-2.90
2019,11,28,02,12,-2.90
2019,11,28,02,13,-2.90
2019,11,28,02,14,-2.90
2019,11,28,02,15,-2.90
2019,11,28,02,16,-2.90
2019,11,28,02,17,-3.00
2019,11,28,02,18,-3.00
2019,11,28,02,19,-3.00
2019,11,28,02,20,-3.00
2019,11,28,02,21,-3.00
2019,11,28,02,22,-3.00
2019,11,28,02,23,-3.00
2019,11,28,02,24,-3.00
2019,11,28,02,25,-3.00
2019,11,28,02,26,-2.90
2019,11,28,02,27,-3.00
2019,11,28,02,28,-3.00
2019,11,28,02,29,-3.00
2019,11,28,02,30,-3.10
2019,11,28,02,31,-3.10
2019,11,28,02,32,-3.10
2019,11,28,02,33,-3.10
2019,11,28,02,34,-3.10
2019,11,28,02,35,-3.10
2019,11,28,02,36,-3.10
2019,11,28,02,37,-3.10
2019,11,28,02,38,-3.10
2019,11,28,02,39,-3.10
2019,11,28,02,40,-3.10
2019,11,28,02,41,-3.20
2019,11,28,02,42,-3.20
2019,11,28,02,43,-3.20
2019,11,28,02,44,-3.20
2019,11,28,02,45,-3.20
2019,11,28,02,46,-3.20
2019,11,28,02,47,-3.20
2019,11,28,02,48,-3.20
2019,11,28,02,49,-3.20
2019,11,28,02,50,-3.20
2019,11,28,02,51,-3.20
2019,11,28,02,52,-3.20
2019,11,28,02,53,-3.20
2019,11,28,02,54,-3.20
2019,11,28,02,55,-3.20
2019,11,28,02,56,-3.20
2019,11,28,02,57,-3.20
2019,11,28,02,58,-3.20
2019,11,28,02,59,-3.20
2019,11,28,03,00,-3.20
2019,11,28,03,01,-3.20
2019,11,28,03,02,-3.20
2019,11,28,03,03,-3.20
2019,11,28,03,04,-3.20
2019,11,28,03,05,-3.20
2019,11,28,03,06,-3.30
2019,11,28,03,07,-3.30
2019,11,28,03,08,-3.30
2019,11,28,03,09,-3.30
2019,11,28,03,10,-3.30
2019,11,28,03,11,-3.30
2019,11,28,03,12,-3.30
2019,11,28,03,13,-3.30
2019,11,28,03,14,-3.30
2019,11,28,03,15,-3.30
2019,11,28,03,16,-3.30
2019,11,28,03,17,-3.40
2019,11,28,03,18,-3.40
2019,11,28,03,19,-3.40
2019,11,28,03,20,-3.40
2019,11,28,03,21,-3.50
2019,11,28,03,22,-3.50
2019,11,28,03,23,-3.50
2019,11,28,03,24,-3.50
2019,11,28,03,25,-3.50
2019,11,28,03,26,-3.50
2019,11,28,03,27,-3.50
2019,11,28,03,28,-3.50
2019,11,28,03,29,-3.40
2019,11,28,03,30,-3.40
2019,11,28,03,31,-3.40
2019,11,28,03,32,-3.40
2019,11,28,03,33,-3.40
2019,11,28,03,34,-3.40
2019,11,28,03,35,-3.40
2019,11,28,03,36,-3.40
2019,11,28,03,37,-3.40
2019,11,28,03,38,-3.40
2019,11,28,03,39,-3.40
2019,11,28,03,40,-3.40
2019,11,28,03,41,-3.40
2019,11,28,03,42,-3.40
2019,11,28,03,43,-3.40
2019,11,28,03,44,-3.40
2019,11,28,03,45,-3.40
2019,11,28,03,46,-3.40
2019,11,28,03,47,-3.40
2019,11,28,03,48,-3.40
2019,11,28,03,49,-3.40
2019,11,28,03,50,-3.40
2019,11,28,03,51,-3.20
2019,11,28,03,52,-3.00
2019,11,28,03,53,-2.80
2019,11,28,03,54,-2.60
2019,11,28,03,55,-2.40
2019,11,28,03,56,-2.30
2019,11,28,03,57,-2.30
2019,11,28,03,58,-2.20
2019,11,28,03,59,-2.10
2019,11,28,04,00,-2.00
2019,11,28,04,01,-1.90
2019,11,28,04,02,-1.90
2019,11,28,04,03,-1.90
2019,11,28,04,04,-1.90
2019,11,28,04,05,-1.90
2019,11,28,04,06,-1.90
2019,11,28,04,07,-2.00
2019,11,28,04,08,-2.00
2019,11,28,04,09,-2.00
2019,11,28,04,10,-2.10
2019,11,28,04,11,-2.10
2019,11,28,04,12,-2.10
2019,11,28,04,13,-2.20
2019,11,28,04,14,-2.20
2019,11,28,04,15,-2.30
2019,11,28,04,16,-2.40
2019,11,28,04,17,-2.60
2019,11,28,04,18,-2.70
2019,11,28,04,19,-2.80
2019,11,28,04,20,-2.90
2019,11,28,04,21,-3.00
2019,11,28,04,22,-3.10
2019,11,28,04,23,-3.10
2019,11,28,04,24,-3.20
2019,11,28,04,25,-3.20
2019,11,28,04,26,-3.20
2019,11,28,04,27,-3.30
2019,11,28,04,28,-3.30
2019,11,28,04,29,-3.30
2019,11,28,04,30,-3.40
2019,11,28,04,31,-3.40
2019,11,28,04,32,-3.40
2019,11,28,04,33,-3.50
2019,11,28,04,34,-3.50
2019,11,28,04,35,-3.50
2019,11,28,04,36,-3.60
2019,11,28,04,37,-3.60
2019,11,28,04,38,-3.60
2019,11,28,04,39,-3.70
2019,11,28,04,40,-3.70
2019,11,28,04,41,-3.70
2019,11,28,04,42,-3.70
2019,11,28,04,43,-3.70
2019,11,28,04,44,-3.70
2019,11,28,04,45,-3.70
2019,11,28,04,46,-3.70
2019,11,28,04,47,-3.70
2019,11,28,04,48,-3.70
2019,11,28,04,49,-3.70
2019,11,28,04,50,-3.70
2019,11,28,04,51,-3.70
2019,11,28,04,52,-3.70
2019,11,28,04,53,-3.70
2019,11,28,04,54,-3.70
2019,11,28,04,55,-3.70
2019,11,28,04,56,-3.70
2019,11,28,04,57,-3.70
2019,11,28,04,58,-3.70
2019,11,28,04,59,-3.70
2019,11,28,05,00,-3.80
2019,11,28,05,01,-3.80
2019,11,28,05,02,-3.80
2019,11,28,05,03,-3.80
2019,11,28,05,04,-3.90
2019,11,28,05,05,-3.90
2019,11,28,05,06,-3.90
2019,11,28,05,07,-3.90
2019,11,28,05,08,-3.90
2019,11,28,05,09,-3.90
2019,11,28,05,10,-3.90
2019,11,28,05,11,-3.90
2019,11,28,05,12,-3.90
2019,11,28,05,13,-3.90
2019,11,28,05,14,-3.90
2019,11,28,05,15,-3.90
2019,11,28,05,16,-3.90
2019,11,28,05,17,-4.00
2019,11,28,05,18,-4.00
2019,11,28,05,19,-4.00
2019,11,28,05,20,-4.00
2019,11,28,05,21,-4.10
2019,11,28,05,22,-4.10
2019,11,28,05,23,-4.10
2019,11,28,05,24,-4.10
2019,11,28,05,25,-4.10
2019,11,28,05,26,-4.10
2019,11,28,05,27,-4.20
2019,11,28,05,28,-4.20
2019,11,28,05,29,-4.20
2019,11,28,05,30,-4.20
2019,11,28,05,31,-4.20
2019,11,28,05,32,-4.30
2019,11,28,05,33,-4.20
2019,11,28,05,34,-4.20
2019,11,28,05,35,-4.20
2019,11,28,05,36,-4.20
2019,11,28,05,37,-4.20
2019,11,28,05,38,-4.10
2019,11,28,05,39,-4.10
2019,11,28,05,40,-4.10
2019,11,28,05,41,-4.10
2019,11,28,05,42,-4.10
2019,11,28,05,43,-4.10
2019,11,28,05,44,-4.10
2019,11,28,05,45,-4.10
2019,11,28,05,46,-4.10
2019,11,28,05,47,-4.10
2019,11,28,05,48,-4.10
2019,11,28,05,49,-4.20
2019,11,28,05,50,-4.20
2019,11,28,05,51,-4.20
2019,11,28,05,52,-4.20
2019,11,28,05,53,-4.20
2019,11,28,05,54,-4.20
2019,11,28,05,55,-4.20
2019,11,28,05,56,-4.30
2019,11,28,05,57,-4.30
2019,11,28,05,58,-4.30
2019,11,28,05,59,-4.30
2019,11,28,06,00,-4.30
2019,11,28,06,01,-4.30
2019,11,28,06,02,-4.30
2019,11,28,06,03,-4.30
2019,11,28,06,04,-4.30
2019,11,28,06,05,-4.40
2019,11,28,06,06,-4.30
2019,11,28,06,07,-4.40
2019,11,28,06,08,-4.40
2019,11,28,06,09,-4.30
2019,11,28,06,10,-4.30
2019,11,28,06,11,-4.30
2019,11,28,06,12,-4.30
2019,11,28,06,13,-4.30
2019,11,28,06,14,-4.30
2019,11,28,06,15,-4.30
2019,11,28,06,16,-4.30
2019,11,28,06,17,-4.30
2019,11,28,06,18,-4.30
2019,11,28,06,19,-4.30
2019,11,28,06,20,-4.40
2019,11,28,06,21,-4.40
2019,11,28,06,22,-4.40
2019,11,28,06,23,-4.40
2019,11,28,06,24,-4.40
2019,11,28,06,25,-4.40
2019,11,28,06,26,-4.50
2019,11,28,06,27,-4.50
2019,11,28,06,28,-4.50
2019,11,28,06,29,-4.50
2019,11,28,06,30,-4.50
2019,11,28,06,31,-4.50
2019,11,28,06,32,-4.50
2019,11,28,06,33,-4.60
2019,11,28,06,34,-4.60
2019,11,28,06,35,-4.60
2019,11,28,06,36,-4.60
2019,11,28,06,37,-4.60
2019,11,28,06,38,-4.60
2019,11,28,06,39,-4.60
2019,11,28,06,40,-4.60
2019,11,28,06,41,-4.60
2019,11,28,06,42,-4.60
2019,11,28,06,43,-4.60
2019,11,28,06,44,-4.70
2019,11,28,06,45,-4.70
2019,11,28,06,46,-4.70
2019,11,28,06,47,-4.70
2019,11,28,06,48,-4.70
2019,11,28,06,49,-4.70
2019,11,28,06,50,-4.60
2019,11,28,06,51,-4.60
2019,11,28,06,52,-4.60
2019,11,28,06,53,-4.60
2019,11,28,06,54,-4.60
2019,11,28,06,55,-4.60
2019,11,28,06,56,-4.60
2019,11,28,06,57,-4.60
2019,11,28,06,58,-4.60
2019,11,28,06,59,-4.60
2019,11,28,07,00,-4.60
2019,11,28,07,01,-4.70
2019,11,28,07,02,-4.70
2019,11,28,07,03,-4.70
2019,11,28,07,04,-4.70
2019,11,28,07,05,-4.70
2019,11,28,07,06,-4.70
2019,11,28,07,07,-4.60
2019,11,28,07,08,-4.60
2019,11,28,07,09,-4.60
2019,11,28,07,10,-4.60
2019,11,28,07,11,-4.60
2019,11,28,07,12,-4.60
2019,11,28,07,13,-4.60
2019,11,28,07,14,-4.60
2019,11,28,07,15,-4.60
2019,11,28,07,16,-4.60
2019,11,28,07,17,-4.60
2019,11,28,07,18,-4.70
2019,11,28,07,19,-4.70
2019,11,28,07,20,-4.70
2019,11,28,07,21,-4.70
2019,11,28,07,22,-4.70
2019,11,28,07,23,-4.70
2019,11,28,07,24,-4.70
2019,11,28,07,25,-4.70
2019,11,28,07,26,-4.70
2019,11,28,07,27,-4.70
2019,11,28,07,28,-4.60
2019,11,28,07,29,-4.60
2019,11,28,07,30,-4.60
2019,11,28,07,31,-4.60
2019,11,28,07,32,-4.60
2019,11,28,07,33,-4.60
2019,11,28,07,34,-4.60
2019,11,28,07,35,-4.60
2019,11,28,07,36,-4.70
2019,11,28,07,37,-4.70
2019,11,28,07,38,-4.70
2019,11,28,07,39,-4.70
2019,11,28,07,40,-4.70
2019,11,28,07,41,-4.70
2019,11,28,07,42,-4.70
2019,11,28,07,43,-4.70
2019,11,28,07,44,-4.70
2019,11,28,07,45,-4.70
2019,11,28,07,46,-4.80
2019,11,28,07,47,-4.80
2019,11,28,07,48,-4.80
2019,11,28,07,49,-4.80
2019,11,28,07,50,-4.80
2019,11,28,07,51,-4.80
2019,11,28,07,52,-4.90
2019,11,28,07,53,-4.90
2019,11,28,07,54,-4.90
2019,11,28,07,55,-4.90
2019,11,28,07,56,-4.90
2019,11,28,07,57,-4.90
2019,11,28,07,58,-4.90
2019,11,28,07,59,-5.00
2019,11,28,08,00,-5.00
2019,11,28,08,01,-5.00
2019,11,28,08,02,-5.00
2019,11,28,08,03,-5.00
2019,11,28,08,04,-5.00
2019,11,28,08,05,-5.10
2019,11,28,08,06,-5.10
2019,11,28,08,07,-5.10
2019,11,28,08,08,-5.10
2019,11,28,08,09,-5.10
2019,11,28,08,10,-5.10
2019,11,28,08,11,-5.10
2019,11,28,08,12,-5.20
2019,11,28,08,13,-5.20
2019,11,28,08,14,-5.20
2019,11,28,08,15,-5.20
2019,11,28,08,16,-5.20
2019,11,28,08,17,-5.20
2019,11,28,08,18,-5.20
2019,11,28,08,19,-5.20
2019,11,28,08,20,-5.20
2019,11,28,08,21,-5.20
2019,11,28,08,22,-5.20
2019,11,28,08,23,-5.20
2019,11,28,08,24,-5.20
2019,11,28,08,25,-5.20
2019,11,28,08,26,-5.20
2019,11,28,08,27,-5.20
2019,11,28,08,28,-5.20
2019,11,28,08,29,-5.10
2019,11,28,08,30,-5.10
2019,11,28,08,31,-5.10
2019,11,28,08,32,-5.10
2019,11,28,08,33,-5.10
2019,11,28,08,34,-5.10
2019,11,28,08,35,-5.10
2019,11,28,08,36,-5.10
2019,11,28,08,37,-5.10
2019,11,28,08,38,-5.10
2019,11,28,08,39,-5.10
2019,11,28,08,40,-5.10
2019,11,28,08,41,-5.10
2019,11,28,08,42,-5.10
2019,11,28,08,43,-5.00
2019,11,28,08,44,-5.00
2019,11,28,08,45,-5.00
2019,11,28,08,46,-5.00
2019,11,28,08,47,-5.00
2019,11,28,08,48,-5.00
2019,11,28,08,49,-5.00
2019,11,28,08,50,-5.00
2019,11,28,08,51,-5.00
2019,11,28,08,52,-5.00
2019,11,28,08,53,-5.00
2019,11,28,08,54,-5.00
2019,11,28,08,55,-5.00
2019,11,28,08,56,-5.00
2019,11,28,08,57,-5.00
2019,11,28,08,58,-5.00
2019,11,28,08,59,-4.90
2019,11,28,09,00,-4.90
2019,11,28,09,01,-4.90
2019,11,28,09,02,-4.90
2019,11,28,09,03,-4.90
2019,11,28,09,04,-4.80
2019,11,28,09,05,-4.80
2019,11,28,09,06,-4.80
2019,11,28,09,07,-4.70
2019,11,28,09,08,-4.70
2019,11,28,09,09,-4.70
2019,11,28,09,10,-4.70
2019,11,28,09,11,-4.60
2019,11,28,09,12,-4.50
2019,11,28,09,13,-4.50
2019,11,28,09,14,-4.40
2019,11,28,09,15,-4.40
2019,11,28,09,16,-4.30
2019,11,28,09,17,-4.20
2019,11,28,09,18,-4.10
2019,11,28,09,19,-4.00
2019,11,28,09,20,-3.90
2019,11,28,09,21,-3.80
2019,11,28,09,22,-3.80
2019,11,28,09,23,-3.70
2019,11,28,09,24,-3.70
2019,11,28,09,25,-3.60
2019,11,28,09,26,-3.50
2019,11,28,09,27,-3.50
2019,11,28,09,28,-3.40
2019,11,28,09,29,-3.40
2019,11,28,09,30,-3.30
2019,11,28,09,31,-3.40
2019,11,28,09,32,-3.30
2019,11,28,09,33,-3.30
2019,11,28,09,34,-3.20
2019,11,28,09,35,-3.20
2019,11,28,09,36,-3.10
2019,11,28,09,37,-3.10
2019,11,28,09,38,-3.00
2019,11,28,09,39,-3.00
2019,11,28,09,40,-2.90
2019,11,28,09,41,-2.90
2019,11,28,09,42,-2.80
2019,11,28,09,43,-2.80
2019,11,28,09,44,-2.70
2019,11,28,09,45,-2.70
2019,11,28,09,46,-2.60
2019,11,28,09,47,-2.60
2019,11,28,09,48,-2.50
2019,11,28,09,49,-2.40
2019,11,28,09,50,-2.40
2019,11,28,09,51,-2.40
2019,11,28,09,52,-2.30
2019,11,28,09,53,-2.30
2019,11,28,09,54,-2.30
2019,11,28,09,55,-2.20
2019,11,28,09,56,-2.20
2019,11,28,09,57,-2.20
2019,11,28,09,58,-2.20
2019,11,28,09,59,-2.20
2019,11,28,10,00,-2.10
2019,11,28,10,01,-2.00
2019,11,28,10,02,-1.80
2019,11,28,10,03,-1.80
2019,11,28,10,04,-1.70
2019,11,28,10,05,-1.70
2019,11,28,10,06,-1.60
2019,11,28,10,07,-1.50
2019,11,28,10,08,-1.40
2019,11,28,10,09,-1.40
2019,11,28,10,10,-1.40
2019,11,28,10,11,-1.40
2019,11,28,10,12,-1.40
2019,11,28,10,13,-1.40
2019,11,28,10,14,-1.40
2019,11,28,10,15,-1.40
2019,11,28,10,16,-1.30
2019,11,28,10,17,-1.20
2019,11,28,10,18,-1.20
2019,11,28,10,19,-1.00
2019,11,28,10,20,-1.00
2019,11,28,10,21,-0.90
2019,11,28,10,22,-0.90
2019,11,28,10,23,-0.80
2019,11,28,10,24,-0.80
2019,11,28,10,25,-0.80
2019,11,28,10,26,-0.70
2019,11,28,10,27,-0.70
2019,11,28,10,28,-0.60
2019,11,28,10,29,-0.60
2019,11,28,10,30,-0.50
2019,11,28,10,31,-0.40
2019,11,28,10,32,-0.30
2019,11,28,10,33,-0.30
2019,11,28,10,34,-0.20
2019,11,28,10,35,-0.20
2019,11,28,10,36,-0.10
2019,11,28,10,37,-0.10
2019,11,28,10,38,-0.10
2019,11,28,10,39,0.00
2019,11,28,10,40,0.10
2019,11,28,10,41,0.10
2019,11,28,10,42,0.00
2019,11,28,10,43,0.00
2019,11,28,10,44,-0.10
2019,11,28,10,45,-0.10
2019,11,28,10,46,-0.10
2019,11,28,10,47,-0.10
2019,11,28,10,48,0.00
2019,11,28,10,49,0.10
2019,11,28,10,50,0.10
2019,11,28,10,51,0.20
2019,11,28,10,52,0.20
2019,11,28,10,53,0.20
2019,11,28,10,54,0.20
2019,11,28,10,55,0.20
2019,11,28,10,56,0.20
2019,11,28,10,57,0.20
2019,11,28,10,58,0.20
2019,11,28,10,59,0.20
2019,11,28,11,00,0.20
2019,11,28,11,01,0.20
2019,11,28,11,02,0.20
2019,11,28,11,03,0.20
2019,11,28,11,04,0.20
2019,11,28,11,05,0.20
2019,11,28,11,06,0.20
2019,11,28,11,07,0.30
2019,11,28,11,08,0.40
2019,11,28,11,09,0.60
2019,11,28,11,10,0.70
2019,11,28,11,11,0.80
2019,11,28,11,12,0.80
2019,11,28,11,13,0.80
2019,11,28,11,14,0.90
2019,11,28,11,15,0.90
2019,11,28,11,16,0.90
2019,11,28,11,17,0.80
2019,11,28,11,18,0.80
2019,11,28,11,19,0.70
2019,11,28,11,20,0.70
2019,11,28,11,21,0.60
2019,11,28,11,22,0.60
2019,11,28,11,23,0.50
2019,11,28,11,24,0.60
2019,11,28,11,25,0.60
2019,11,28,11,26,0.60
2019,11,28,11,27,0.60
2019,11,28,11,28,0.70
2019,11,28,11,29,0.70
2019,11,28,11,30,0.70
2019,11,28,11,31,0.80
2019,11,28,11,32,0.90
2019,11,28,11,33,1.00
2019,11,28,11,34,1.20
2019,11,28,11,35,1.30
2019,11,28,11,36,1.40
2019,11,28,11,37,1.50
2019,11,28,11,38,1.60
2019,11,28,11,39,1.70
2019,11,28,11,40,1.80
2019,11,28,11,41,1.80
2019,11,28,11,42,1.80
2019,11,28,11,43,1.80
2019,11,28,11,44,1.80
2019,11,28,11,45,1.80
2019,11,28,11,46,1.80
2019,11,28,11,47,1.80
2019,11,28,11,48,1.80
2019,11,28,11,49,1.90
2019,11,28,11,50,1.90
2019,11,28,11,51,1.90
2019,11,28,11,52,1.90
2019,11,28,11,53,1.90
2019,11,28,11,54,1.90
2019,11,28,11,55,1.90
2019,11,28,11,56,2.00
2019,11,28,11,57,2.00
2019,11,28,11,58,2.10
2019,11,28,11,59,2.20
2019,11,28,12,00,2.20
2019,11,28,12,01,2.30
2019,11,28,12,02,2.40
2019,11,28,12,03,2.40
2019,11,28,12,04,2.50
2019,11,28,12,05,2.50
2019,11,28,12,06,2.60
2019,11,28,12,07,2.70
2019,11,28,12,08,2.80
2019,11,28,12,09,2.80
2019,11,28,12,10,2.80
2019,11,28,12,11,2.80
2019,11,28,12,12,2.90
2019,11,28,12,13,2.90
2019,11,28,12,14,2.90
2019,11,28,12,15,2.90
2019,11,28,12,16,2.90
2019,11,28,12,17,2.90
2019,11,28,12,18,3.00
2019,11,28,12,19,3.00
2019,11,28,12,20,3.10
2019,11,28,12,21,3.20
2019,11,28,12,22,3.30
2019,11,28,12,23,3.50
2019,11,28,12,24,3.60
2019,11,28,12,25,3.70
2019,11,28,12,26,3.70
2019,11,28,12,27,3.70
2019,11,28,12,28,3.70
2019,11,28,12,29,3.60
2019,11,28,12,30,3.60
2019,11,28,12,31,3.50
2019,11,28,12,32,3.40
2019,11,28,12,33,3.40
2019,11,28,12,34,3.40
2019,11,28,12,35,3.30
2019,11,28,12,36,3.30
2019,11,28,12,37,3.30
2019,11,28,12,38,3.30
2019,11,28,12,39,3.40
2019,11,28,12,40,3.40
2019,11,28,12,41,3.50
2019,11,28,12,42,3.60
2019,11,28,12,43,3.70
2019,11,28,12,44,3.80
2019,11,28,12,45,3.80
2019,11,28,12,46,3.90
2019,11,28,12,47,3.90
2019,11,28,12,48,4.00
2019,11,28,12,49,4.00
2019,11,28,12,50,4.00
2019,11,28,12,51,4.00
2019,11,28,12,52,4.00
2019,11,28,12,53,4.00
2019,11,28,12,54,3.90
2019,11,28,12,55,4.00
2019,11,28,12,56,4.00
2019,11,28,12,57,4.00
2019,11,28,12,58,4.00
2019,11,28,12,59,4.00
2019,11,28,13,00,4.00
2019,11,28,13,01,4.00
2019,11,28,13,02,4.10
2019,11,28,13,03,4.10
2019,11,28,13,04,4.20
2019,11,28,13,05,4.30
2019,11,28,13,06,4.40
2019,11,28,13,07,4.40
2019,11,28,13,08,4.40
2019,11,28,13,09,4.40
2019,11,28,13,10,4.30
2019,11,28,13,11,4.30
2019,11,28,13,12,4.30
2019,11,28,13,13,4.30
2019,11,28,13,14,4.30
2019,11,28,13,15,4.30
2019,11,28,13,16,4.30
2019,11,28,13,17,4.30
2019,11,28,13,18,4.30
2019,11,28,13,19,4.30
2019,11,28,13,20,4.20
2019,11,28,13,21,4.20
2019,11,28,13,22,4.30
2019,11,28,13,23,4.30
2019,11,28,13,24,4.30
2019,11,28,13,25,4.30
2019,11,28,13,26,4.30
2019,11,28,13,27,4.30
2019,11,28,13,28,4.40
2019,11,28,13,29,4.40
2019,11,28,13,30,4.40
2019,11,28,13,31,4.50
2019,11,28,13,32,4.60
2019,11,28,13,33,4.60
2019,11,28,13,34,4.70
2019,11,28,13,35,4.70
2019,11,28,13,36,4.70
2019,11,28,13,37,4.70
2019,11,28,13,38,4.70
2019,11,28,13,39,4.80
2019,11,28,13,40,4.80
2019,11,28,13,41,4.90
2019,11,28,13,42,4.90
2019,11,28,13,43,4.90
2019,11,28,13,44,5.00
2019,11,28,13,45,5.00
2019,11,28,13,46,5.00
2019,11,28,13,47,5.00
2019,11,28,13,48,5.10
2019,11,28,13,49,5.10
2019,11,28,13,50,5.10
2019,11,28,13,51,5.20
2019,11,28,13,52,5.20
2019,11,28,13,53,5.20
2019,11,28,13,54,5.20
2019,11,28,13,55,5.20
2019,11,28,13,56,5.20
2019,11,28,13,57,5.20
2019,11,28,13,58,5.10
2019,11,28,13,59,5.10
2019,11,28,14,00,5.00
2019,11,28,14,01,4.90
2019,11,28,14,02,4.80
2019,11,28,14,03,4.70
2019,11,28,14,04,4.60
2019,11,28,14,05,4.50
2019,11,28,14,06,4.40
2019,11,28,14,07,4.30
2019,11,28,14,08,4.30
2019,11,28,14,09,4.20
2019,11,28,14,10,4.20
2019,11,28,14,11,4.10
2019,11,28,14,12,4.10
2019,11,28,14,13,4.00
2019,11,28,14,14,4.00
2019,11,28,14,15,3.90
2019,11,28,14,16,3.90
2019,11,28,14,17,3.90
2019,11,28,14,18,3.90
2019,11,28,14,19,3.90
2019,11,28,14,20,3.90
2019,11,28,14,21,3.90
2019,11,28,14,22,3.90
2019,11,28,14,23,3.90
2019,11,28,14,24,3.80
2019,11,28,14,25,3.80
2019,11,28,14,26,3.80
2019,11,28,14,27,3.80
2019,11,28,14,28,3.80
2019,11,28,14,29,3.80
2019,11,28,14,30,3.80
2019,11,28,14,31,3.70
2019,11,28,14,32,3.70
2019,11,28,14,33,3.70
2019,11,28,14,34,3.60
2019,11,28,14,35,3.60
2019,11,28,14,36,3.60
2019,11,28,14,37,3.60
2019,11,28,14,38,3.50
2019,11,28,14,39,3.50
2019,11,28,14,40,3.50
2019,11,28,14,41,3.40
2019,11,28,14,42,3.40
2019,11,28,14,43,3.40
2019,11,28,14,44,3.40
2019,11,28,14,45,3.30
2019,11,28,14,46,3.20
2019,11,28,14,47,3.10
2019,11,28,14,48,3.00
2019,11,28,14,49,2.80
2019,11,28,14,50,2.70
2019,11,28,14,51,2.60
2019,11,28,14,52,2.50
2019,11,28,14,53,2.40
2019,11,28,14,54,2.30
2019,11,28,14,55,2.20
2019,11,28,14,56,2.10
2019,11,28,14,57,2.00
2019,11,28,14,58,1.90
2019,11,28,14,59,1.80
2019,11,28,15,00,1.70
2019,11,28,15,01,1.60
2019,11,28,15,02,1.50
2019,11,28,15,03,1.50
2019,11,28,15,04,1.40
2019,11,28,15,05,1.30
2019,11,28,15,06,1.20
2019,11,28,15,07,1.20
2019,11,28,15,08,1.10
2019,11,28,15,09,1.00
2019,11,28,15,10,0.90
2019,11,28,15,11,0.90
2019,11,28,15,12,0.80
2019,11,28,15,13,0.70
2019,11,28,15,14,0.60
2019,11,28,15,15,0.50
2019,11,28,15,16,0.40
2019,11,28,15,17,0.30
2019,11,28,15,18,0.30
2019,11,28,15,19,0.20
2019,11,28,15,20,0.10
2019,11,28,15,21,0.10
2019,11,28,15,22,0.00
2019,11,28,15,23,-0.10
2019,11,28,15,24,-0.10
2019,11,28,15,25,-0.10
2019,11,28,15,26,-0.10
2019,11,28,15,27,-0.20
2019,11,28,15,28,-0.20
2019,11,28,15,29,-0.20
2019,11,28,15,30,-0.20
2019,11,28,15,31,-0.20
2019,11,28,15,32,-0.30
2019,11,28,15,33,-0.30
2019,11,28,15,34,-0.30
2019,11,28,15,35,-0.40
2019,11,28,15,36,-0.40
2019,11,28,15,37,-0.40
2019,11,28,15,38,-0.40
2019,11,28,15,39,-0.40
2019,11,28,15,40,-0.50
2019,11,28,15,41,-0.50
2019,11,28,15,42,-0.50
2019,11,28,15,43,-0.50
2019,11,28,15,44,-0.60
2019,11,28,15,45,-0.60
2019,11,28,15,46,-0.60
2019,11,28,15,47,-0.60
2019,11,28,15,48,-0.60
2019,11,28,15,49,-0.60
2019,11,28,15,50,-0.70
2019,11,28,15,51,-0.70
2019,11,28,15,52,-0.70
2019,11,28,15,53,-0.70
2019,11,28,15,54,-0.80
2019,11,28,15,55,-0.80
2019,11,28,15,56,-0.80
2019,11,28,15,57,-0.80
2019,11,28,15,58,-0.90
2019,11,28,15,59,-0.90
2019,11,28,16,00,-0.90
2019,11,28,16,01,-0.90
2019,11,28,16,02,-0.90
2019,11,28,16,03,-0.90
2019,11,28,16,04,-1.00
2019,11,28,16,05,-1.00
2019,11,28,16,06,-1.00
2019,11,28,16,07,-1.10
2019,11,28,16,08,-1.10
2019,11,28,16,09,-1.10
2019,11,28,16,10,-1.20
2019,11,28,16,11,-1.20
2019,11,28,16,12,-1.20
2019,11,28,16,13,-1.20
2019,11,28,16,14,-1.20
2019,11,28,16,15,-1.30
2019,11,28,16,16,-1.30
2019,11,28,16,17,-1.30
2019,11,28,16,18,-1.30
2019,11,28,16,19,-1.30
2019,11,28,16,20,-1.40
2019,11,28,16,21,-1.40
2019,11,28,16,22,-1.40
2019,11,28,16,23,-1.40
2019,11,28,16,24,-1.40
2019,11,28,16,25,-1.40
2019,11,28,16,26,-1.40
2019,11,28,16,27,-1.40
2019,11,28,16,28,-1.50
2019,11,28,16,29,-1.50
2019,11,28,16,30,-1.50
2019,11,28,16,31,-1.50
2019,11,28,16,32,-1.60
2019,11,28,16,33,-1.60
2019,11,28,16,34,-1.60
2019,11,28,16,35,-1.60
2019,11,28,16,36,-1.60
2019,11,28,16,37,-1.70
2019,11,28,16,38,-1.70
2019,11,28,16,39,-1.70
2019,11,28,16,40,-1.70
2019,11,28,16,41,-1.70
2019,11,28,16,42,-1.70
2019,11,28,16,43,-1.70
2019,11,28,16,44,-1.80
2019,11,28,16,45,-1.80
2019,11,28,16,46,-1.80
2019,11,28,16,47,-1.80
2019,11,28,16,48,-1.80
2019,11,28,16,49,-1.80
2019,11,28,16,50,-1.80
2019,11,28,16,51,-1.90
2019,11,28,16,52,-1.90
2019,11,28,16,53,-1.90
2019,11,28,16,54,-2.00
2019,11,28,16,55,-2.00
2019,11,28,16,56,-2.00
2019,11,28,16,57,-2.00
2019,11,28,16,58,-2.00
2019,11,28,16,59,-2.10
2019,11,28,17,00,-2.10
2019,11,28,17,01,-2.10
2019,11,28,17,02,-2.10
2019,11,28,17,03,-2.10
2019,11,28,17,04,-2.10
2019,11,28,17,05,-2.10
2019,11,28,17,06,-2.10
2019,11,28,17,07,-2.10
2019,11,28,17,08,-2.10
2019,11,28,17,09,-2.10
2019,11,28,17,10,-2.20
2019,11,28,17,11,-2.20
2019,11,28,17,12,-2.20
2019,11,28,17,13,-2.20
2019,11,28,17,14,-2.20
2019,11,28,17,15,-2.20
2019,11,28,17,16,-2.20
2019,11,28,17,17,-2.20
2019,11,28,17,18,-2.30
2019,11,28,17,19,-2.30
2019,11,28,17,20,-2.30
2019,11,28,17,21,-2.30
2019,11,28,17,22,-2.30
2019,11,28,17,23,-2.30
2019,11,28,17,24,-2.30
2019,11,28,17,25,-2.30
2019,11,28,17,26,-2.30
2019,11,28,17,27,-2.30
2019,11,28,17,28,-2.30
2019,11,28,17,29,-2.40
2019,11,28,17,30,-2.40
2019,11,28,17,31,-2.40
2019,11,28,17,32,-2.40